Flag for Germany Weather past 2 weeks in Hofheim am Taunus, Hesse, Germany

Now
54 °F

Broken clouds.


Feels Like: 50 °F
Forecast: 38 / 60 °F
Wind: 13 mph from North

Location: Wiesbaden Airport


UV Index: 0 (Low)

Visibility: N/A


Pressure: 29.91 "Hg

Humidity: 47%

Dew point: 34 °F

Location of Hofheim am TaunusLocation

Historic Weather in Hofheim am Taunus

°F

Hofheim am Taunus temperature yesterday

Maximum temperature yesterday: 61 °F (at 4:58 PM)
Minimum temperature yesterday: 40 °F (at 5:58 AM)
Average temperature yesterday: 50 °F

Past Weeks' High & Low Weather Summary

 TemperatureHumidityPressure
High72 °F (Apr 4, 4:58 PM)100% (Apr 6, 3:58 AM)30.45 "Hg (Apr 6, 3:58 AM)
Low32 °F (Apr 16, 3:58 AM)31% (Apr 17, 5:58 PM)29.66 "Hg (Apr 3, 3:58 PM)
Average54 °F65%30.07 "Hg
* Reported Apr 3 10:58 AM — Apr 18 10:58 AM, Hofheim am Taunus, Weather by CustomWeather, © 2014

Note: Actual official high and low records may vary slightly from our data, if they occured in-between our weather recording intervals... More about our weather records

Advertising

Historic Weather Conditions — Data for Previous 24 hours

 ConditionsComfort  
Time TempWeatherWind HumidityBarometerVisibility
10:58 AM
Apr 18
50 °FPartly sunny.13 mph54%29.90 "HgN/A
9:58 AM50 °FScattered clouds.12 mph58%29.91 "HgN/A
8:58 AM48 °FPartly sunny.1 mph66%29.90 "HgN/A
7:58 AM46 °FOvercast.5 mph82%29.89 "HgN/A
6:58 AM46 °FMostly cloudy.3 mph81%29.88 "HgN/A
5:58 AM49 °FLight rain. Passing clouds.9 mph84%29.85 "HgN/A
4:58 AM52 °FPassing clouds.7 mph63%29.85 "HgN/A
3:58 AM52 °FPartly cloudy.5 mph62%29.87 "HgN/A
2:58 AM48 °FOvercast.2 mph71%29.88 "HgN/A
1:58 AM48 °FPassing clouds.3 mph71%29.90 "HgN/A
12:58 AM49 °FClear.2 mph64%29.92 "HgN/A
11:58 PM
Apr 17
48 °FPassing clouds.No wind62%29.94 "HgN/A
10:58 PM49 °FOvercast.No wind56%29.97 "HgN/A
9:58 PM50 °FClear.2 mph54%29.98 "HgN/A
8:58 PM54 °FPartly sunny.No wind38%29.99 "HgN/A
7:58 PM54 °FSunny.5 mph41%30.00 "HgN/A
6:58 PM59 °FSunny.6 mph34%30.03 "HgN/A
5:58 PM61 °FSunny.8 mph31%30.06 "HgN/A
4:58 PM61 °FSunny.2 mph34%30.08 "HgN/A
3:58 PM59 °FSunny.7 mph37%30.11 "HgN/A
2:58 PM57 °FSunny.5 mph41%30.15 "HgN/A
1:58 PM56 °FSunny.7 mph42%30.19 "HgN/A
12:58 PM55 °FSunny.3 mph44%30.22 "HgN/A
Weather by CustomWeather, © 2014

See weather overview